New Bedford, MA

5:22 PM EDT on August 28, 2016 (GMT -0400)
New Bedford Regional

Weather History for KEWB - August, 2014

Change the Weather History Date:

Friday, August 22, 2014

  Actual Average Record
Temperature  
Mean Temperature 67 °F -  
Max Temperature 75 °F 79 °F 91 °F (1975)
Min Temperature 61 °F 62 °F 46 °F (1982)
Cooling Degree Days 2    
Growing Degree Days 17 (Base 50)    
Moisture  
Dew Point 62 °F    
Average Humidity 82    
Maximum Humidity 100    
Minimum Humidity 64    
Precipitation  
Precipitation 0.00 in - - ()
Sea Level Pressure  
Sea Level Pressure 30.06 in    
Wind  
Wind Speed 5 mph (NE)    
Max Wind Speed 10 mph    
Max Gust Speed -    
Visibility 10 miles    
Events Rain    
Averages and records for this station are not official NWS values.
T = Trace of Precipitation, MM = Missing Value Source: NWS Daily Summary

Daily Weather History Graph

Daily Weather History Graph

Search for Another Location

Airport or City:

Trip Planner

Search our weather history database for the weather conditions in past years. The results will help you decide how hot, cold, wet, or windy it might be!

Date:

Astronomy

Aug. 22, 2014 Rise Set
Actual Time 5:59 AM EDT 7:33 PM EDT
Civil Twilight 5:30 AM EDT 8:02 PM EDT
Nautical Twilight 4:54 AM EDT 8:37 PM EDT
Astronomical Twilight 4:17 AM EDT 9:15 PM EDT
Moon 3:18 AM EDT (8/22) 5:40 PM EDT (8/22)
Length of Visible Light 14h 32m
Length of Day
13h 33m
Waning Crescent, 8% of the Moon is Illuminated
Aug 22
Waning Crescent
Aug 25
New
Sep 2
First Quarter
Sep 8
Full
Sep 15
Last Quarter

Hourly Weather History & Observations

Time (EDT) Temp. Dew Point Humidity Pressure Visibility Wind Dir Wind Speed Gust Speed Precip Events Conditions
12:53 AM 61.0 °F 60.1 °F 97% 30.06 in 10.0 mi Calm Calm - N/A   Partly Cloudy
1:53 AM 62.1 °F 61.0 °F 96% 30.05 in 10.0 mi NNW 3.5 mph - N/A   Overcast
2:53 AM 63.0 °F 61.0 °F 93% 30.05 in 10.0 mi Calm Calm - N/A   Overcast
3:39 AM 63.0 °F 61.0 °F 93% 30.05 in 10.0 mi Calm Calm - N/A   Overcast
3:53 AM 63.0 °F 62.1 °F 97% 30.05 in 10.0 mi NNW 4.6 mph - N/A   Overcast
4:53 AM 62.6 °F 62.6 °F 100% 30.05 in 10.0 mi NW 3.5 mph - N/A Rain Light Rain
5:22 AM 63.0 °F 62.1 °F 97% 30.06 in 10.0 mi Calm Calm - 0.00 in   Overcast
5:53 AM 64.0 °F 62.1 °F 93% 30.06 in 10.0 mi Calm Calm - 0.00 in   Overcast
6:53 AM 64.0 °F 63.0 °F 96% 30.06 in 10.0 mi NE 4.6 mph - 0.00 in Rain Light Rain
7:53 AM 64.4 °F 62.6 °F 94% 30.06 in 10.0 mi NNE 5.8 mph - N/A   Overcast
8:53 AM 66.9 °F 63.0 °F 87% 30.06 in 10.0 mi NE 5.8 mph - 0.00 in Rain Light Rain
9:53 AM 70.0 °F 61.0 °F 73% 30.06 in 10.0 mi ENE 10.4 mph - 0.00 in   Scattered Clouds
10:53 AM 71.6 °F 62.6 °F 73% 30.06 in 10.0 mi NE 10.4 mph - N/A   Mostly Cloudy
11:21 AM 72.0 °F 62.1 °F 71% 30.06 in 10.0 mi East 9.2 mph - N/A   Mostly Cloudy
11:53 AM 72.0 °F 62.1 °F 71% 30.06 in 10.0 mi ENE 9.2 mph - N/A   Overcast
12:48 PM 73.4 °F 62.6 °F 69% 30.06 in 10.0 mi NE 8.1 mph - N/A   Mostly Cloudy
12:53 PM 72.0 °F 62.1 °F 71% 30.06 in 10.0 mi East 9.2 mph - N/A   Mostly Cloudy
1:21 PM 72.0 °F 62.1 °F 71% 30.06 in 10.0 mi NE 8.1 mph - N/A   Mostly Cloudy
1:53 PM 72.0 °F 61.0 °F 68% 30.07 in 10.0 mi ENE 8.1 mph - N/A   Overcast
2:23 PM 72.0 °F 62.1 °F 71% 30.06 in 10.0 mi ENE 10.4 mph - N/A   Overcast
2:36 PM 73.0 °F 62.1 °F 68% 30.06 in 10.0 mi ENE 10.4 mph - N/A   Mostly Cloudy
2:53 PM 73.0 °F 62.1 °F 68% 30.05 in 10.0 mi NE 10.4 mph - N/A   Overcast
3:53 PM 73.0 °F 60.1 °F 64% 30.04 in 10.0 mi East 9.2 mph - N/A   Scattered Clouds
4:53 PM 73.4 °F 60.8 °F 65% 30.04 in 10.0 mi ENE 9.2 mph - N/A   Partly Cloudy
5:53 PM 72.0 °F 60.1 °F 66% 30.06 in 10.0 mi NNE 9.2 mph - N/A   Overcast
6:53 PM 69.1 °F 60.1 °F 73% 30.06 in 10.0 mi NE 10.4 mph - N/A   Partly Cloudy
7:53 PM 66.9 °F 61.0 °F 81% 30.07 in 10.0 mi NE 9.2 mph - N/A   Mostly Cloudy
8:53 PM 66.0 °F 61.0 °F 84% 30.08 in 10.0 mi NE 6.9 mph - N/A   Clear
9:53 PM 64.9 °F 61.0 °F 87% 30.08 in 10.0 mi NNE 5.8 mph - N/A   Mostly Cloudy
10:46 PM 64.9 °F 62.1 °F 90% 30.07 in 10.0 mi NNE 3.5 mph - N/A   Mostly Cloudy
10:53 PM 64.9 °F 62.1 °F 90% 30.07 in 10.0 mi NNE 5.8 mph - N/A   Scattered Clouds
11:53 PM 64.0 °F 62.1 °F 93% 30.07 in 10.0 mi NNE 5.8 mph - N/A   Clear